Satellite: NOAA-19
Catalog number: 33591
Epoch time:      10237.70707380
Element set:    0652
Inclination:      098.7909 deg
RA of node:       178.3603 deg
Eccentricity:    0.0015167
Arg of perigee:   091.7495 deg
Mean anomaly:     268.5415 deg
Mean motion:   14.11076178 rev/day
Decay rate:      -1.85e-06 rev/day^2
Epoch rev:           07971
Checksum:              330

/EX
SB KEPS @ AMSAT  $ORB10238.M
Orbital Elements  10238.MISC

HR AMSAT ORBITAL ELEMENTS FOR MANNED AND MISCELLANEOUS SATELLITES
FROM WA5QGD FORT WORTH,TX August 26, 2010
Send Subscribe/unsubscribe to KEPS at http://www.amsat.org/mailman/listinfo/kep
BID: ORB10238.M
TO ALL RADIO AMATEURS BT

Satellite: HUBBLE
Catalog number: 20580
Epoch time:      10238.12944327
Element set:     634
Inclination:      028.4677 deg
RA of node:       143.2399 deg
Eccentricity:    0.0003640
Arg of perigee:   221.6409 deg
Mean anomaly:     138.3923 deg
Mean motion:   15.01021892 rev/day
Decay rate:       4.09e-06 rev/day^2
Epoch rev:           91527
Checksum:              280

Satellite: ISS
Catalog number: 25544
Epoch time:      10238.83028510
Element set:     776
Inclination:      051.6453 deg
RA of node:       229.1315 deg
Eccentricity:    0.0007611
Arg of perigee:   298.4323 deg
Mean anomaly:     130.7842 deg
Mean motion:   15.71273119 rev/day
Decay rate:     1.1443e-04 rev/day^2
Epoch rev:           67458
Checksum:              286

Satellite: CO-58
Catalog number: 28895
Epoch time:      10238.23310128
Element set:     665
Inclination:      098.0049 deg
RA of node:       120.3534 deg
Eccentricity:    0.0019096
Arg of perigee:   066.8453 deg
Mean anomaly:     293.4740 deg
Mean motion:   14.59923853 rev/day
Decay rate:        6.0e-07 rev/day^2
Epoch rev:           25720
Checksum:              312

Satellite: FALCON
Catalog number: 30776
Epoch time:      10238.66029448
Element set:     900
Inclination:      035.4348 deg
RA of node:       336.4022 deg
Eccentricity:    0.0001066
Arg of perigee:   013.2516 deg
Mean anomaly:     346.8228 deg
Mean motion:   15.03781811 rev/day
Decay rate:       6.35e-06 rev/day^2
Epoch rev:           19067
Checksum:              277

Satellite: MAST
Catalog number: 31126
Epoch time:      10238.57179781
Element set:     947
Inclination:      097.9323 deg
RA of node:       276.9245 deg
Eccentricity:    0.0095221
Arg of perigee:   007.9568 deg
Mean anomaly:     352.3148 deg
Mean motion:   14.53613809 rev/day
Decay rate:       1.24e-06 rev/day^2
Epoch rev:           17828
Checksum:              322

Satellite: CAPE1
Catalog number: 31130
Epoch time:      10237.65793534
Element set:    0969
Inclination:      097.9339 deg
RA of node:       273.3307 deg
Eccentricity:    0.0103068
Arg of perigee:   019.4341 deg
Mean anomaly:     341.0728 deg
Mean motion:   14.52213558 rev/day
Decay rate:       2.13e-06 rev/day^2
Epoch rev:           17774
Checksum:              295

Satellite: COMPASS
Catalog number: 32787
Epoch time:      10238.66109067
Element set:     759
Inclination:      097.8889 deg
RA of node:       302.4299 deg
Eccentricity:    0.0016776
Arg of perigee:   058.0344 deg
Mean anomaly:     302.2531 deg
Mean motion:   14.81945686 rev/day
Decay rate:       1.66e-06 rev/day^2
Epoch rev:           12593
Checksum:              336

Satellite: AAUSAT2
Catalog number: 32788
Epoch time:      10237.64456081
Element set:    0751
Inclination:      097.8889 deg
RA of node:       301.5701 deg
Eccentricity:    0.0016592
Arg of perigee:   062.0672 deg
Mean anomaly:     298.2192 deg
Mean motion:   14.82092659 rev/day
Decay rate:       3.31e-06 rev/day^2
Epoch rev:           12579
Checksum:              321

Satellite: DO-64
Catalog number: 32789
Epoch time:      10238.65853929
Element set:     769
Inclination:      097.8972 deg
RA of node:       303.1267 deg
Eccentricity:    0.0016534
Arg of perigee:   058.2878 deg
Mean anomaly:     301.9959 deg
Mean motion:   14.82272690 rev/day
Decay rate:       5.09e-06 rev/day^2
Epoch rev:           12594
Checksum:              365

Satellite: CO-66
Catalog number: 32791
Epoch time:      10237.14032631
Element set:    0752
Inclination:      097.8919 deg
RA of node:       300.9384 deg
Eccentricity:    0.0017170
Arg of perigee:   061.9043 deg
Mean anomaly:     298.3957 deg
Mean motion:   14.81720012 rev/day
Decay rate:       4.77e-06 rev/day^2
Epoch rev:           12566
Checksum:              307

Satellite: RS-30
Catalog number: 32953
Epoch time:      10238.71839344
Element set:     987
Inclination:      082.5057 deg
RA of node:       345.8182 deg
Eccentricity:    0.0017828
Arg of perigee:   310.9199 deg
Mean anomaly:     049.0334 deg
Mean motion:   12.43007448 rev/day
Decay rate:        1.0e-07 rev/day^2
Epoch rev:           10250
Checksum:              294

Satellite: TACSAT-3
Catalog number: 35001
Epoch time:      10237.92207592
Element set:    0383
Inclination:      040.4561 deg
RA of node:       155.0297 deg
Eccentricity:    0.0020491
Arg of perigee:   171.6889 deg
Mean anomaly:     188.4273 deg
Mean motion:   15.42433977 rev/day
Decay rate:      4.274e-05 rev/day^2
Epoch rev:           07140
Checksum:              296

